www.pogodaiklimat.ru

Архив погоды в Нгаундере (Камерун)

Время
(UTC), дата
18 17.02
21 17.02
00 18.02
03 18.02
06 18.02
09 18.02
12 18.02
15 18.02
18 18.02
21 18.02
00 19.02
03 19.02
06 19.02
09 19.02
12 19.02
15 19.02
18 19.02
21 19.02
00 20.02
03 20.02
06 20.02
09 20.02
12 20.02
15 20.02
18 20.02
21 20.02
00 21.02
03 21.02
06 21.02
09 21.02
12 21.02
15 21.02
18 21.02
21 21.02
00 22.02
03 22.02
06 22.02
09 22.02
12 22.02
15 22.02
18 22.02
00 23.02
03 23.02
06 23.02
09 23.02
12 23.02
15 23.02
18 23.02
03 24.02
06 24.02
09 24.02
12 24.02
Ветер
(напр.,м/с)
Видим. Явления Облачность Т
(С)
Тd
(С)
f
(%)
Тe
(С)
Тes
(С)
Комфортность P
(гПа)
Po
(гПа)
Тmin
(С)
Tmax
(С)
R
(мм)
R24
(мм)
S
(см)
С 3 3000 м мгла 6/0 [Ci sp] +23.4 +4.3 29 +23 +23 комфорт 891.8 +34.0
СВ 2 н/о 1 балл +20.8 0.0 25 +22 +22 комфорт 1010.4 889.7 0.0
СВ 1 6000 м 9/0 [Ci sp] +19.2 +1.7 31 +21 +21 комфорт 1010.4 889.1 0.0
штиль 0 6000 м мгла 9/0 [Ci sp] +14.4 +7.1 62 +14 +14 892.3
штиль 0 6000 м мгла 9/0 [Ci sp] +14.1 +11.3 83 +14 +15 893.4
СВ 3 н/о 2 балла +28.3 +0.9 17 +26 +39 жарко 1011.2 893.2 0.0
СВ 3 6000 м мгла 9/0 [Ci sp] +31.6 +2.6 16 +29 +42 жарко 890.4
СВ 4 н/о ясно +32.9 +1.9 14 +30 +30 жарко 1005.1 889.5 0.0
СВ 3 8000 м 9/0 [Ci sp] +25.2 -0.1 19 +24 +24 комфорт 1007.0 888.4 +34.0 0.0
ЮВ 1 6000 м 6/0 [Ci sp] +20.0 +4.4 36 +22 +22 комфорт 893.0
штиль 0 6000 м мгла 6/0 [Ci sp] +16.9 +6.6 51 +17 +17 892.1
штиль 0 6000 м мгла 6/0 [Ci sp] +18.3 +9.3 56 +19 +19 891.5
штиль 0 8000 м мгла 9/0 [Ci sp] +17.6 +8.9 57 +18 +19 892.8 +34.0
СВ 2 8000 м мгла 9/0 [Ci sp] +28.0 +2.9 20 +26 +38 жарко 1020.0 893.5
СВ 4 8000 м мгла 9/0 [Ci sp] +33.1 +6.4 19 +31 +41 жарко 890.3
В 3 8000 м мгла 9/0 [Ci sp] +33.8 +3.7 15 +31 +35 жарко 1014.0 888.5
СЗ 1 8000 м мгла 9/0 [Ci sp] +27.1 +5.6 25 +26 +26 жарко 890.3 +35.5
штиль 0 8000 м мгла 9/0 [Ci sp] +21.4 +4.4 33 +22 +22 комфорт 892.0
В 1 н/о 1 балл +20.0 +6.3 41 +22 +22 комфорт 1007.8 887.3 0.0
ЮВ 1 н/о ясно +17.8 +3.7 39 +19 +19 1007.4 886.0 0.0
штиль 0 8000 м мгла 9/0 [Ci sp] +16.6 +6.7 52 +17 +18 891.4
Ю 2 3000 м мгла 9/0 [Ci sp] +31.5 +6.3 21 +30 +42 жарко 1017.0 891.4
З 2 3000 м мгла 9/0 [Ci sp] +34.1 +8.9 21 +33 +48 жарко 887.8
СВ 2 н/о 7 баллов +34.3 +5.7 17 +32 +34 жарко 1000.8 886.3 0.0
С 3 н/о 3 балла +28.7 +4.9 22 +27 +27 жарко 1003.1 886.3 0.0
СВ 2 н/о 2 балла +23.8 +3.7 27 +23 +23 комфорт 1006.2 887.2 0.0
В 1 3000 м 9/0 [Ci sp] +22.2 +6.0 35 +23 +23 комфорт 1006.0 886.5 0.0
Ю 1 3000 м 9/0 [Ci sp] +18.8 +8.4 51 +21 +21 комфорт 1005.8 885.1 0.0
ЮВ 1 3000 м 9/0 [Ac trans Ci sp] +20.2 +11.4 57 +23 +24 комфорт 1007.4 887.2 0.0
СВ 3 10 км 9/0 [Ci sp] +31.0 +4.0 18 +29 +41 жарко 1017.0 896.7
С 3 10 км 9/0 [Ci sp] +32.0 +1.8 15 +29 +42 жарко 887.4
СЗ 4 10 км ясно +33.0 +3.0 15 +30 +34 жарко 1012.0 893.0
штиль 0 10 км 9/0 [Ac trans Ci sp] +26.6 +0.7 18 +25 +25 комфорт 887.8 +34.1
штиль 0 10 км 6/0 [Ac trans Ci sp] +23.4 +3.2 27 +23 +23 комфорт 889.1
штиль 0 10 км 6/0 [Ac trans Ci sp] +19.6 +6.0 41 +20 +20 888.2
ЮВ 2 10 км 9/0 [Ac trans Ci sp] +18.9 +5.7 42 +20 +20 887.6
штиль 0 8000 м мгла 9/0 [Ac trans Ci sp] +15.8 +7.1 56 +16 +17 888.8
С 2 8000 м мгла 9/0 [Ci sp] +28.2 +0.9 17 +26 +39 жарко 1016.0 890.2
СВ 4 10 км ясно +33.0 +2.0 14 +30 +43 жарко 1013.0 893.9
С 4 8000 м мгла 9/0 [Ci sp] +31.0 +2.0 16 +28 +32 жарко 1012.0 892.3
С 3 н/о 1 балл +26.4 +0.9 19 +25 +25 комфорт 1003.9 886.1 0.0
С 3 н/о 6 баллов +22.6 +2.1 26 +22 +22 комфорт 1006.5 887.0 0.0
С 2 8000 м мгла 9/0 [Ac trans Ci sp] +23.3 +4.5 29 +23 +23 комфорт 889.0
СЗ 4 4000 м мгла 9/0 [Ac lent Ci sp] +20.3 +3.8 34 +21 +21 комфорт 891.9
С 5 900 м пыль ?/? +24.3 +5.5 30 +24 +24 комфорт 1020.0 893.6
СВ 5 1000 м пыль 9/0 [Ac trans] +27.0 +3.0 21 +25 +25 комфорт 1017.0 895.2
С 6 1200 м мгла 9/0 [Ci sp] +26.3 +6.7 29 +26 +28 жарко 890.0
С 1 1200 м мгла 9/0 [Ac As Ci sp] +22.4 +9.5 44 +24 +24 комфорт 891.7 +27.7
СВ 1 2000 м мгла 9/0 [Ci sp] +16.2 +8.0 58 +17 +17 892.3
СВ 3 н/о 2 балла +18.8 +7.6 48 +20 +21 1011.5 890.1 0.0
СВ 4 2000 м мгла 9/0 [Ci sp] +27.0 +8.0 30 +27 +27 жарко 1020.0 897.9
В 4 н/о мгла ясно +30.0 +8.0 25 +29 +29 жарко 1017.0 896.4
Местоположение метеостанции Нгаундере (Камерун): широта 7.35 долгота 13.57 высота над уровнем моря 1114 м.
В архиве по умолчанию представлена погода в Нгаундере за последнюю неделю. Архивные данные за месяц целиком и за предыдущие месяцы, начиная с января 2011 года, Вы можете получить, выбрав интересующий диапазон дат из раскрывающегося списка и нажав кнопку "Найти!".
*Определитесь, кто Вы:
Внимание! Время в таблицах - всемирное. Для получения местного времени необходимо прибавить поправку, которая равна 1 ч.
Некоторые строки с данными для отдельных станций могут быть выделены курсивом. Это означает, что фактические данные отсутствуют по различным причинам, а приведенные значения являются расчетными модельными данными для данного пункта наблюдений.
Смотрите также архив погоды в соседних городах и на ближайших метеорологических станциях:
Партнеры нашего сайта:      
Пояснения к столбцам:
  • Ветер - указаны скорость ветра в м/с - средняя за 10 мин, порывы в срок и между сроками (в фигурных скобках) и направление, откуда дует ветер: С - северный,
  • СВ - северо-восточный, В - восточный, ЮВ - юго-восточный, Ю - южный, ЮЗ - юго-западный, З - западный, СЗ - северо-западный.
  • Видимость - горизонтальная дальность видимости в метрах или километрах. При видимости от 1 до 10 км при отсутствии осадков обычно наблюдается дымка, при ухудшении видимости до 1 км и менее - туман. В сухую погоду видимость может ухудшаться дымом, пылью или мглою.
  • Явления - указаны атмосферные явления, наблюдавшиеся в срок или в последний час перед сроком; фигурными скобками обозначены явления, наблюдавшиеся между сроками (за 1-3 часа до срока); квадратными скобками обозначены град или гололедные отложения с указанием их диаметра в мм.
  • Облачность - указаны через наклонную черту общая и нижняя облачность в баллах и высота нижней границы облаков в метрах; квадратными скобками обозначены формы облаков: Ci - перистые, Cs - перисто-слоистые, Cc - перисто-кучевые, Ac - высококучевые, As - высокослоистые, Sc - слоисто-кучевые, Ns - слоисто-дождевые, Cu - кучевые, Cb - кучево-дождевые. Подробнее классификацию облаков см. в Атласе облаков (PDF).
  • T - Температура воздуха - температура, измеренная на высоте 2 м над землей.
  • Td - Температура точки росы - температура, при понижении до которой содержащийся в воздухе водяной пар достигнет насыщения.
  • f - Относительная влажность воздуха - влажноcть воздуха, измеренная на высоте 2 м над землей.
  • Te - Эффективная температура - температура, которую ощущает одетый по сезону человек в тени. Характеристика душности погоды. При расчете учитывается влияние влажности воздуха и скорости ветра на теплоощущения человека.
  • Tes - Эффективная температура на солнце - температура, которую ощущает человек, с поправкой на солнечный нагрев. Характеристика знойности погоды. Зависит от высоты солнца над горизонтом, облачности и скорости ветра. Ночью, в пасмурную погоду, а также при ветре 12 м/с и более поправка равна нулю.
  • P - Атмосферное давление - приведенное к уровню моря атмосферное давление.
  • Po - Атмосферное давление - измеренное на уровне метеостанции атмосферное давление.
  • Tmin - Минимальная температура - минимум температуры воздуха на высоте 2 м над землей.
  • Tmax - Максимальная температура - максимум температуры воздуха на высоте 2 м над землей.
  • R - Количество осадков - Количество выпавших осадков за период времени, мм. При наведении курсора мыши на число - период времени, за который выпало указанное количество осадков.
  • R24 - Количество осадков - Количество выпавших осадков за 24 часа, мм.
  • S - Снежный покров - Высота снежного покрова, см. При наведении курсора мыши на число - состояние снежного покрова и степень покрытия местности в баллах.